Regional Weather Roundup
Issued by NWS

Home | Current Version | Previous Version | Text Only | Print | Product List | Glossary On
Versions: 1 2 3 4 5 6 7 8 9 10 11 12 13 14 15 16 17 18 19 20 21 22 23 24 25 26 27 28 29 30 31 32 33 34 35 36 37 38 39 40 41 42 43 44 45 46 47 48 49 50
000
ASCA44 KEWX 170620
RWRMX

LATIN AMERICA AND CARIBBEAN REGIONAL WEATHER ROUNDUP
NATIONAL WEATHER SERVICE AUSTIN/SAN ANTONIO TX
1200 AM CST SUN DEC 17 2017

NOTE: "FAIR" INDICATED FEW OR NO CLOUDS BELOW 12,000 FEET WITH NO
SIGNIFICANT WEATHER AND/OR OBSTRUCTIONS TO VISIBILITY.

BAJA CALIFORNIA

CITY           SKY/WX    TMP DP  RH WIND       PRES   REMARKS
LA PAZ         MOCLDY    64  54  68 SW7       29.95R
MEXICALI       PTCLDY    46  32  57 NW6       29.74R WCI  43
S.J. DEL CABO    N/A     66  55  68 SE3       29.96R
TIJUANA        MOCLDY    55  52  88 NW5       29.78F

NORTHWESTERN MEXICO

CITY           SKY/WX    TMP DP  RH WIND       PRES   REMARKS
HERMOSILLO     PTCLDY    68  57  68 SE16      29.84S

NORTHEASTERN MEXICO

CITY           SKY/WX    TMP DP  RH WIND       PRES   REMARKS
MONCLOVA         N/A    N/A N/A N/A MISG        N/A
MONTERREY      CLOUDY    46  45  93 CALM      30.05R FOG
REYNOSA          N/A    N/A N/A N/A MISG        N/A
CD. VICTORIA     N/A    N/A N/A N/A MISG        N/A

WESTERN MEXICO

CITY           SKY/WX    TMP DP  RH WIND       PRES   REMARKS
AGUASCALIENTES MOCLDY    52  50  93 SE5       30.27F
COLIMA           N/A    N/A N/A N/A MISG        N/A
DEL BAJIO      MOCLDY    54  48  82 CALM      30.30F
GUADALAJARA    CLOUDY    54  52  94 CALM      30.22S FOG
MAZATLAN       CLEAR     59  57  94 NE5       29.96
P. VALLARTA    CLOUDY    72  68  88 CALM      29.98
URUAPAN          N/A    N/A N/A N/A MISG        N/A
ZACATECAS        N/A    N/A N/A N/A MISG        N/A

CENTRAL MEXICO

CITY           SKY/WX    TMP DP  RH WIND       PRES   REMARKS
CUERNAVACA       N/A    N/A N/A N/A MISG        N/A
MEXICO CITY    CLEAR     59  43  55 S8        30.33S
MORELIA        MOCLDY    52  50  93 CALM      30.26S
POZA RICA        N/A    N/A N/A N/A MISG        N/A
S. LUIS POTOSI MOCLDY    55  41  58 NW5       30.24S
TOLUCA         MOCLDY    41  39  93 CALM      30.40R

SOUTHERN MEXICO

CITY           SKY/WX    TMP DP  RH WIND       PRES   REMARKS
ACAPULCO         N/A    N/A N/A N/A MISG        N/A
B. DE HUATULCO   N/A    N/A N/A N/A MISG        N/A
P. ESCONDIDO     N/A    N/A N/A N/A MISG        N/A
VERACRUZ         N/A    N/A N/A N/A MISG        N/A

YUCATAN PENINSULA

CITY           SKY/WX    TMP DP  RH WIND       PRES   REMARKS
CAMPECHE       CLOUDY    73  73 100 CALM      30.03F
CANCUN         PTCLDY    77  73  88 E6        30.10F
CHETUMAL       PTCLDY    73  73 100 CALM      30.05F
CD. DEL CARMEN   N/A    N/A N/A N/A MISG        N/A
COZUMEL        PTCLDY    75  73  94 CALM      30.07F
MERIDA         CLEAR     72  70  94 E6        30.08F
MINATITLAN     MOCLDY    73  66  78 CALM      30.01F
TAPACHULA      CLEAR     72  72 100 CALM      29.89
TUX. GUTIERREZ PTCLDY    63  61  94 CALM      30.06F
VILLAHERMOSA   PTCLDY    66  66 100 CALM      30.05F

CENTRAL AMERICA

CITY           SKY/WX    TMP DP  RH WIND       PRES   REMARKS
MANAGUA        PTCLDY    72  70  94 CALM      29.86F

CARIBBEAN

CITY           SKY/WX    TMP DP  RH WIND       PRES   REMARKS
ARUBA          PTCLDY    81  73  78 E15       29.89F
KINGSTON       PTCLDY    79  72  78 NW8       29.97S
NASSAU         MOCLDY    75  68  78 NE7       30.20F
SAN JUAN       RAIN      77  75  94 NE17G23   30.05F
SANTO DOMINGO  PTCLDY    73  72  94 N5        30.03F
ST. CROIX      PTCLDY    79  70  73 NE12      30.03F
ST. THOMAS     PTCLDY    79  72  78 E9        30.03F

$$





USA.gov is the U.S. government's official web portal to all federal, state and local government web resources and services.